Location: Barber Mountain
(32.6873°N, 116.7147°W)
Time: 14:55:35
(UTC+00:00)

Daily predictions for brighter satellites

Satellite Brightness Start Highest point End
(mag) Time Altitude Azimuth Time Altitude Azimuth Time Altitude Azimuth
Cosmos 2208 Rocket 4.3 12:20:28 60° S 12:20:28 60° S 12:24:48 10° S
ATLAS 5 CENTAUR R/B 3.0 12:20:01 27° SE 12:20:49 30° ESE 12:24:16 10° NE
Cosmos 1766 Rocket 4.3 12:18:15 10° SSE 12:22:26 51° E 12:26:38 10° NNE
Cosmos 1867 3.9 12:24:57 51° SSW 12:24:57 51° SSW 12:29:14 10° SSE
Cosmos 1241 Rocket 4.3 12:25:05 66° NW 12:26:01 83° WSW 12:32:14 10° SSE
Meteor 2-13 Rocket 4.2 12:22:32 10° S 12:28:39 77° W 12:34:44 10° N
BREEZE-M DEB 3.8 12:31:18 37° E 12:31:18 37° E 12:34:27 10° NE
SL-4 R/B 4.3 12:39:38 10° S 12:42:08 19° SE 12:44:42 10° E
Hubble Space Telescope 3.2 12:43:46 12° SSW 12:43:46 12° SSW 12:44:45 10° S
H-2A R/B 2.7 12:42:12 47° NNE 12:43:11 77° E 12:46:58 10° S
COSMO-SKYMED 1 3.8 12:40:11 10° SE 12:44:14 40° ENE 12:48:16 10° N
Meteor 1-31 Rocket 3.5 12:41:31 10° NNE 12:45:21 55° E 12:49:11 10° S
Envisat 2.9 12:43:44 10° NNE 12:48:50 89° E 12:53:54 10° SSW
MOS 1-B Rocket 4.0 12:42:35 10° SSE 12:49:06 82° ENE 12:54:53 10° N
Cosmos 1174 3.6 12:51:49 56° ESE 12:51:49 56° ESE 12:54:40 10° NE
Cosmos 1408 Rocket 4.3 12:50:25 10° S 12:54:35 53° E 12:58:46 10° NNE
Cosmos 1782 4.4 12:58:15 20° SSW 12:58:15 20° SSW 12:59:44 10° SSW
CZ-4B R/B 4.1 12:53:53 10° NNE 12:58:23 88° ESE 13:02:47 10° SSW
Cosmos 2369 Rocket 3.9 13:03:39 16° NNW 13:03:39 16° NNW 13:05:12 10° N
ATLAS 3B R/B 2.7 13:00:45 10° SSW 13:07:10 79° ESE 13:13:52 10° NNE
Landsat 5 4.2 13:04:18 10° SSE 13:08:43 58° ENE 13:13:07 10° N
Meteor 1-10 Rocket 4.4 13:07:09 10° N 13:12:41 72° E 13:18:14 10° SSE
DELTA 2 R/B (1) 4.2 13:10:34 28° NW 13:12:53 41° N 13:18:07 10° ENE
SJ 16-02 1.4 13:08:55 10° S 13:13:17 81° ESE 13:17:40 10° NNE
CZ-2C R/B 2.6 13:11:16 10° S 13:16:47 82° WSW 13:22:12 10° NNW
Cosmos 1354 Rocket 4.3 13:12:34 10° SW 13:17:30 41° WNW 13:22:31 10° N
CBERS 1 LM4 rocket 4.5 13:13:27 10° N 13:18:17 56° WNW 13:23:19 10° SSW
Cosmos 1515 Rocket 4.1 13:15:42 10° N 13:19:59 58° E 13:24:14 10° SSE
FALCON 9 R/B 4.0 13:04:37 21° W 13:23:03 90° SSW 13:29:51 10° ESE
SL-19 R/B 4.4 13:19:39 10° S 13:25:06 51° WSW 13:30:31 10° NNW
Cosmos 2279 Rocket 4.1 13:23:15 10° NNW 13:29:15 54° W 13:35:15 10° SSW
Nadezhda 4 Rocket 3.9 13:25:23 10° S 13:31:31 80° W 13:37:45 10° N
Cosmos 1500 Rocket 3.6 13:27:45 10° S 13:32:12 83° E 13:36:41 10° N
SKYMED 2 3.7 13:28:00 10° S 13:32:12 50° W 13:36:26 10° NNW
Cosmos 921 Rocket 4.4 13:33:05 19° W 13:33:56 20° W 13:37:11 10° SW
USA 215 4.4 13:30:23 10° ESE 13:36:15 37° NE 13:42:08 10° NNW
ADEOS 3.6 13:35:38 10° N 13:40:46 58° WNW 13:45:52 10° SSW
Meteor PRIRODA 3.5 13:38:24 10° N 13:42:01 78° WNW 13:45:38 10° SSW
CZ-4B R/B 2.5 13:40:43 10° N 13:44:18 85° WNW 13:47:57 10° SSW
Cosmos 1805 Rocket 4.1 13:40:08 10° S 13:44:28 62° E 13:48:47 10° NNE
H-2A R/B 3.5 13:41:30 10° SE 13:45:26 39° ENE 13:49:29 10° N
SL-27 R/B 2.4 13:43:39 10° NNW 13:47:13 89° ENE 13:50:42 10° SSE
Cosmos 1812 4.4 13:47:07 14° W 13:47:34 14° W 13:49:35 10° WSW
Meteor 2-15 4.5 13:41:54 10° NNW 13:47:49 59° W 13:53:44 10° S
Cosmos 1340 Rocket 2.8 13:45:09 10° SSW 13:48:59 54° W 13:52:53 10° N
Cosmos 1092 Rocket 4.2 13:43:17 10° S 13:49:30 81° E 13:55:49 10° N
Cosmos 1151 Rocket 4.4 13:47:00 11° NW 13:49:44 19° W 13:52:48 10° SW
SMAP 3.7 13:46:37 10° NNE 13:51:13 60° E 13:55:48 10° S
NOAA 11 4.4 13:52:07 10° N 13:57:20 47° WNW 14:02:33 10° SW
FAST Rocket 4.4 13:57:09 10° SSW 13:59:38 37° W 14:02:14 10° N
SL-8 R/B 4.0 13:55:12 10° NW 13:59:57 63° NE 14:04:40 10° ESE
OAO 2 Rocket 3.6 13:55:09 10° WSW 14:00:19 71° SSE 14:05:23 10° ENE
CZ-2C R/B 3.1 13:56:21 10° N 14:01:12 54° WNW 14:06:18 10° SSW
ATLAS 5 CENTAUR R/B 2.9 14:03:05 10° W 14:05:27 16° NW 14:07:55 10° N
CZ-4B R/B 3.5 14:03:06 10° SE 14:06:00 28° ENE 14:08:51 10° NNE
H-2A R/B 3.5 14:02:45 10° NNE 14:07:23 41° E 14:12:04 10° S
